Home   Weather   Big Bear Lake   Past weeks
Flag for USA

Past Weather in Big Bear Lake, California, USA — Yesterday and Last 2 Weeks

Now
34 °F

Clear.


Feels Like: 34 °F
Forecast: 69 / 41 °F
Wind: No wind

Location: Big Bear City Airport

Current Time: Jun 26, 2019 at 5:24:27 am

Latest Report: Jun 26, 2019 at 4:55 am


Visibility: 10 mi

Pressure: 30.10 "Hg (23.29 "Hg at 2058m altitude)

Humidity: 56%

Dew Point: 19 °F

Location of Big Bear LakeLocation

Past Weather in Big Bear Lake — Graph

°F

Big Bear Lake Temperature Yesterday

Maximum temperature yesterday: 72 °F (at 11:55 am)
Minimum temperature yesterday: 37 °F (at 4:15 am)
Average temperature yesterday: 57 °F

High & Low Weather Summary for the Past Weeks

 TemperatureHumidityPressure
High79 °F (Jun 12, 2:15 pm)81% (Jun 19, 4:55 am)30.42 "Hg (Jun 19, 4:55 am)
Low34 °F (Jun 23, 5:55 am)5% (Jun 13, 11:55 am)30.00 "Hg (Jun 21, 1:55 am)
Average59 °F38%30.16 "Hg
* Reported Jun 11 4:15 am — Jun 26 4:15 am, Big Bear Lake. Weather by CustomWeather, © 2019

Note: Actual official high and low records may vary slightly from our data, if they occured in-between our weather recording intervals... More about our weather records

Advertising

Big Bear Lake Weather History for the Previous 24 Hours

Scroll right to see more
 ConditionsComfort  
Time TempWeatherWind HumidityBarometerVisibility
4:15 am
Wed, Jun 26
34 °FClear.No wind51%30.09 "Hg10 mi
3:55 am36 °FClear.No wind41%30.09 "Hg10 mi
3:35 am36 °FClear.No wind48%30.09 "Hg10 mi
3:15 am36 °FClear.No wind52%30.09 "Hg10 mi
2:55 am36 °FClear.No wind56%30.10 "Hg10 mi
2:35 am37 °FClear.No wind52%30.10 "Hg10 mi
2:15 am37 °FClear.No wind56%30.11 "Hg10 mi
1:35 am39 °FClear.No wind61%30.11 "Hg10 mi
1:15 am41 °FClear.No wind61%30.11 "Hg10 mi
12:55 am41 °FClear.No wind70%30.12 "Hg10 mi
12:35 am43 °FClear.No wind66%30.12 "Hg10 mi
12:15 am43 °FClear.No wind66%30.12 "Hg10 mi
11:55 pm
Tue, Jun 25
45 °FClear.No wind66%30.12 "Hg10 mi
11:35 pm46 °FClear.No wind62%30.12 "Hg10 mi
11:15 pm48 °FClear.No wind58%30.12 "Hg10 mi
10:55 pm48 °FClear.No wind58%30.13 "Hg10 mi
10:35 pm50 °FClear.No wind54%30.12 "Hg10 mi
10:15 pm52 °FClear.No wind54%30.13 "Hg10 mi
9:55 pm52 °FClear.No wind50%30.12 "Hg10 mi
9:35 pm55 °FClear.No wind41%30.12 "Hg10 mi
9:15 pm55 °FClear.No wind41%30.11 "Hg10 mi
8:55 pm55 °FClear.6 mph44%30.11 "Hg10 mi
8:35 pm57 °FClear.5 mph39%30.09 "Hg10 mi
8:15 pm59 °FClear.8 mph36%30.09 "Hg10 mi
7:55 pm59 °FSunny.7 mph36%30.09 "Hg10 mi
7:35 pm63 °FSunny.8 mph32%30.08 "Hg10 mi
7:15 pm63 °FSunny.10 mph32%30.08 "Hg10 mi
6:35 pm63 °FSunny.10 mph34%30.08 "Hg10 mi
6:15 pm64 °FSunny.10 mph43%30.09 "Hg10 mi
5:55 pm63 °FSunny.13 mph37%30.08 "Hg10 mi
5:35 pm66 °FSunny.10 mph40%30.08 "Hg10 mi
5:15 pm68 °FSunny.10 mph35%30.09 "Hg10 mi
4:55 pm68 °FSunny.12 mph33%30.09 "Hg10 mi
4:35 pm68 °FSunny.8 mph33%30.09 "Hg10 mi
4:15 pm70 °FSunny.14 mph29%30.09 "Hg10 mi
3:55 pm70 °FSunny.13 mph29%30.09 "Hg10 mi
3:35 pm70 °FSunny.12 mph29%30.10 "Hg10 mi
3:15 pm70 °FSunny.12 mph29%30.10 "Hg10 mi
2:55 pm70 °FSunny.16 mph27%30.10 "Hg10 mi
2:35 pm70 °FSunny.12 mph27%30.10 "Hg10 mi
2:15 pm70 °FSunny.10 mph27%30.10 "Hg10 mi
1:55 pm70 °FSunny.10 mph27%30.11 "Hg10 mi
1:35 pm70 °FSunny.10 mph27%30.11 "Hg10 mi
1:15 pm72 °FSunny.16 mph23%30.11 "Hg10 mi
12:55 pm70 °FSunny.13 mph25%30.11 "Hg10 mi
12:35 pm70 °FSunny.7 mph21%30.11 "Hg10 mi
12:15 pm72 °FSunny.7 mph22%30.11 "Hg10 mi
11:55 am72 °FSunny.10 mph22%30.11 "Hg10 mi
11:35 am70 °FSunny.7 mph23%30.11 "Hg10 mi
10:55 am68 °FSunny.3 mph24%30.11 "Hg10 mi
10:35 am68 °FSunny.6 mph24%30.11 "Hg10 mi
10:15 am66 °FSunny.7 mph26%30.11 "Hg10 mi
9:55 am66 °FSunny.9 mph26%30.11 "Hg10 mi
9:35 am68 °FSunny.5 mph24%30.10 "Hg10 mi
9:15 am66 °FSunny.5 mph26%30.10 "Hg10 mi
8:55 am64 °FSunny.9 mph30%30.10 "Hg10 mi
8:35 am64 °FSunny.8 mph30%30.10 "Hg10 mi
8:15 am63 °FSunny.8 mph32%30.09 "Hg10 mi
7:55 am61 °FSunny.5 mph34%30.09 "Hg10 mi
7:35 am55 °FSunny.6 mph47%30.08 "Hg10 mi
7:15 am50 °FSunny.5 mph54%30.08 "Hg10 mi
6:55 am46 °FSunny.No wind57%30.08 "Hg10 mi
6:35 am43 °FSunny.No wind53%30.08 "Hg10 mi
6:15 am39 °FSunny.No wind56%30.08 "Hg10 mi
5:55 am37 °FSunny.No wind56%30.08 "Hg10 mi
5:35 am37 °FClear.No wind52%30.08 "Hg10 mi
5:15 am37 °FClear.No wind52%30.08 "Hg10 mi
Weather by CustomWeather, © 2019

See weather overview